Date,TemperatureHighF,TemperatureAvgF,TemperatureLowF,DewpointHighF,DewpointAvgF,DewpointLowF,HumidityHigh,HumidityAvg,HumidityLow,PressureMaxIn,PressureMinIn,WindSpeedMaxMPH,WindSpeedAvgMPH,GustSpeedMaxMPH,PrecipitationSumIn
2013-3-1,64.8,55.9,50.8,47.3,40.9,30.3,85,59,31,29.98,29.86,17,5,17,0.00
2013-3-2,58.6,50.0,41.5,38.1,32.5,24.1,72,53,28,30.01,29.89,29,8,29,0.00
2013-3-3,51.2,43.3,35.9,33.3,30.8,28.5,82,62,43,30.13,29.96,20,6,20,0.00
2013-3-4,57.0,47.5,36.0,42.7,34.7,22.4,84,63,35,30.21,30.11,20,4,20,0.00
2013-3-5,74.9,60.6,45.5,54.6,43.4,37.0,83,57,27,30.18,29.94,22,7,22,0.00
2013-3-6,64.9,57.8,47.5,60.7,38.3,23.1,91,52,23,30.12,29.85,25,9,25,0.02
2013-3-7,57.7,50.9,41.0,48.6,41.8,32.7,88,71,60,30.20,30.09,15,5,15,0.00
2013-3-8,62.9,56.1,46.0,52.0,47.3,42.4,93,74,52,30.22,30.14,15,5,15,0.00
2013-3-9,67.4,63.6,61.3,57.8,51.9,45.5,80,66,57,30.24,30.13,19,7,19,0.00
2013-3-10,70.0,65.9,57.5,61.7,58.5,52.2,88,77,71,30.19,30.11,14,4,14,0.00
2013-3-11,70.0,67.4,62.0,64.2,61.4,57.8,87,81,74,30.12,29.91,20,6,20,0.00
2013-3-12,72.0,67.4,59.9,67.2,63.1,52.0,95,86,75,29.99,29.85,23,7,23,0.03
2013-3-13,64.3,58.1,52.4,51.9,45.7,39.1,80,65,42,30.15,29.99,23,6,23,0.00
2013-3-14,55.4,52.4,47.1,44.8,39.2,31.5,76,61,51,30.26,30.13,20,7,20,0.00
2013-3-15,62.9,54.1,43.1,47.1,40.7,30.1,86,63,32,30.27,30.14,13,4,13,0.00
2013-3-16,77.2,60.5,47.4,59.6,47.9,39.2,90,66,29,30.17,30.00,15,4,15,0.00
2013-3-17,75.3,62.7,51.1,62.5,52.7,42.1,96,71,38,30.13,29.98,16,5,16,0.00
2013-3-18,79.5,71.4,65.0,64.6,62.0,59.7,89,73,54,30.06,29.86,17,6,17,0.02
2013-3-19,82.8,69.4,63.2,65.4,62.9,56.7,92,81,43,30.02,29.89,20,4,20,0.00
2013-3-20,69.2,64.7,56.0,65.4,61.7,54.6,95,90,84,29.97,29.79,30,4,30,0.02
2013-3-21,61.9,55.4,47.1,54.4,45.8,38.1,97,72,50,29.95,29.84,15,4,15,0.09
2013-3-22,67.0,61.1,50.1,61.4,49.4,41.1,84,66,48,30.03,29.90,15,4,15,0.01
2013-3-23,83.2,67.5,61.2,71.8,64.7,58.5,96,91,64,29.97,29.75,27,4,27,0.06
2013-3-24,81.8,73.4,66.7,72.1,68.6,64.7,96,85,71,29.83,29.56,38,10,38,0.08
2013-3-25,69.2,63.7,55.3,64.7,42.4,24.6,91,52,20,30.01,29.65,22,8,22,0.01
2013-3-26,58.7,51.6,44.0,32.2,27.9,20.7,60,41,24,30.21,30.00,24,7,24,0.00
2013-3-27,54.9,49.3,41.2,42.6,35.9,29.7,78,60,51,30.29,30.20,15,5,15,0.01
2013-3-28,61.4,53.9,42.7,46.7,41.7,33.3,90,65,37,30.28,30.20,16,5,16,0.00
2013-3-29,65.6,58.4,46.0,47.9,43.4,38.8,90,60,39,30.33,30.20,12,3,12,0.00
2013-3-30,71.5,62.7,50.5,59.4,51.1,42.9,78,67,41,30.25,30.10,19,5,20,0.00
2013-3-31,81.6,70.2,61.1,64.3,54.9,46.8,81,61,31,30.16,29.97,18,7,21,0.00